Location: Gunnison Valley Observatory
(38.5087°N, 106.9386°W)
Time: 05:24:41
(UTC-06:00)

Amateur Radio Satellites - All Passes

Search period start: 23 August 2014 04:54
Search period end: 24 August 2014 04:54
Location: Gunnison Valley Observatory, 38.5087°N, 106.9386°W

Satellite Date Start Highest point End Downlink Frequencies (MHz)
Time Altitude Azimuth
Uosat F 23 Aug 04:55:53 05:00:29 36° 98° (E) 05:05:03 435.120 FM
AO-27 23 Aug 04:58:45 05:01:21 14° 299° (WNW) 05:03:56 436.795 MHz FM
Sapphire 23 Aug 05:09:26 05:14:42 52° 247° (WSW) 05:19:55 437.095 MHz 1200 baud AX-25 AFSK
SO-50 23 Aug 05:15:04 05:18:31 22° 111° (ESE) 05:22:00 436.795 FM
TMSAT-1 23 Aug 05:34:56 05:38:41 20° 296° (WNW) 05:42:26 436.925 FM
PCSat 23 Aug 05:40:30 05:44:54 26° 253° (WSW) 05:49:17 145.825 MHz
JAS-1B 23 Aug 05:48:30 05:51:38 13° 309° (NW) 05:54:34 435.800 - 435.900 CW/SSB
AO-7 23 Aug 06:02:52 06:11:10 77° 290° (WNW) 06:19:25 29.400 - 29.500 MHz
STRAND 1 23 Aug 06:21:43 06:26:11 31° 68° (ENE) 06:30:39 ?
Uosat F 23 Aug 06:35:05 06:39:03 24° 294° (WNW) 06:43:02 435.120 FM
JAS-2 23 Aug 06:40:38 06:45:23 35° 98° (E) 06:50:16 435.800 - 435.900 CW/SSB, 435.910 FM
Hamsat 23 Aug 06:46:26 06:50:41 48° 99° (E) 06:54:53 145.90 MHz
SO-50 23 Aug 06:54:41 06:58:49 36° 308° (NW) 07:03:04 436.795 FM
AO-7 23 Aug 07:57:53 08:02:37 17° 309° (NW) 08:07:20 29.400 - 29.500 MHz
UOSAT-12 23 Aug 08:00:00 08:04:35 84° 120° (ESE) 08:09:18 437.025 FM, 437.400 FM
STRAND 1 23 Aug 08:00:57 08:05:19 28° 264° (W) 08:09:42 ?
KITSAT 1 23 Aug 08:23:18 08:27:55 16° 32° (NNE) 08:32:30 435.175 FM
Hamsat 23 Aug 08:23:50 08:26:12 15° 295° (WNW) 08:28:35 145.90 MHz
JAS-2 23 Aug 08:26:14 08:30:21 25° 293° (WNW) 08:34:33 435.800 - 435.900 CW/SSB, 435.910 FM
SO-67 23 Aug 08:39:51 08:43:10 43° 285° (WNW) 08:46:27 435.3500 MHz FM
RS-15 23 Aug 09:07:03 09:17:55 62° 113° (ESE) 09:28:34 29.354 - 29.394 USB, Beacon 29.352 USB
HO-68 23 Aug 09:07:28 09:12:59 24° 94° (E) 09:18:28 435.675 MHz FM
UKube-1 23 Aug 09:32:44 09:35:11 15° 93° (E) 09:37:38 145.840 MHz, 145.915 MHz
UOSAT-12 23 Aug 09:42:54 09:45:22 14° 319° (NW) 09:47:52 437.025 FM, 437.400 FM
Saudisat 1A 23 Aug 09:42:56 09:47:13 47° 55° (NE) 09:51:28 436.775 MHz
Oscar 11 23 Aug 09:47:50 09:50:01 14° 92° (E) 09:52:12 145.825 FM, Beacon 2401.500 USB
KITSAT 1 23 Aug 10:17:16 10:25:14 58° 56° (NE) 10:33:08 435.175 FM
HO-68 23 Aug 10:54:03 11:01:04 61° 290° (WNW) 11:08:04 435.675 MHz FM
UKube-1 23 Aug 11:07:28 11:11:36 44° 288° (WNW) 11:15:42 145.840 MHz, 145.915 MHz
RS-15 23 Aug 11:20:37 11:30:45 40° 316° (NW) 11:40:52 29.354 - 29.394 USB, Beacon 29.352 USB
Oscar 11 23 Aug 11:22:14 11:26:27 48° 287° (WNW) 11:30:39 145.825 FM, Beacon 2401.500 USB
Saudisat 1A 23 Aug 11:23:41 11:26:24 16° 251° (WSW) 11:29:06 436.775 MHz
FUNcube-1 23 Aug 11:25:02 11:29:29 67° 101° (E) 11:34:00 145.950 - 145.970 MHz USB
KITSAT 1 23 Aug 12:13:25 12:20:08 30° 254° (WSW) 12:26:49 435.175 FM
ISS 23 Aug 12:35:48 12:37:42 15° 129° (SE) 12:39:36 145.800 FM
HO-68 23 Aug 12:45:51 12:47:20 11° 309° (NW) 12:48:48 435.675 MHz FM
JAS-1B 23 Aug 12:48:07 12:54:30 20° 56° (NE) 13:00:36 435.800 - 435.900 CW/SSB
Oscar 16 23 Aug 12:49:00 12:52:49 21° 65° (ENE) 12:56:38 437.025 USB, Beacon 2401.1428
AO-27 23 Aug 12:58:58 13:00:28 11° 60° (ENE) 13:01:58 436.795 MHz FM
FUNcube-1 23 Aug 13:03:50 13:05:19 12° 296° (WNW) 13:06:50 145.950 - 145.970 MHz USB
RS-15 23 Aug 13:40:55 13:47:27 17° 349° (N) 13:54:00 29.354 - 29.394 USB, Beacon 29.352 USB
AO-Echo 23 Aug 13:46:03 13:50:39 34° 70° (ENE) 13:55:08 ?
SO-50 23 Aug 13:47:36 13:50:54 18° 45° (NE) 13:54:13 436.795 FM
Oscar 19 23 Aug 13:53:09 13:58:17 84° 76° (ENE) 14:03:29 437.125 CW, 437.150 USB
ITAMSAT 1 23 Aug 14:07:23 14:12:22 50° 72° (ENE) 14:17:22 435.822 SSB
ISS 23 Aug 14:10:51 14:14:06 53° 324° (NW) 14:17:22 145.800 FM
Gurwin Techsat 1B 23 Aug 14:17:27 14:21:53 28° 67° (ENE) 14:26:19 435.225 FM
Uribyol 2 23 Aug 14:19:18 14:24:26 70° 74° (ENE) 14:29:34 436.500 FM
Oscar 16 23 Aug 14:26:57 14:31:50 44° 261° (W) 14:36:46 437.025 USB, Beacon 2401.1428
JAS-1B 23 Aug 14:33:47 14:43:42 79° 73° (ENE) 14:53:05 435.800 - 435.900 CW/SSB
AO-27 23 Aug 14:34:00 14:39:12 88° 255° (WSW) 14:44:25 436.795 MHz FM
AO-7 23 Aug 15:09:23 15:16:05 28° 57° (ENE) 15:22:46 29.400 - 29.500 MHz
TMSAT-1 23 Aug 15:13:19 15:18:33 67° 74° (ENE) 15:23:49 436.925 FM
AO-Echo 23 Aug 15:25:05 15:29:24 27° 264° (W) 15:33:38 ?
SO-50 23 Aug 15:27:07 15:31:52 62° 242° (WSW) 15:36:38 436.795 FM
MaSat-1 23 Aug 15:28:32 15:33:13 88° 293° (WNW) 15:38:23 437.345 MHz
ITAMSAT 1 23 Aug 15:48:40 15:52:07 18° 267° (W) 15:55:35 435.822 SSB
ISS 23 Aug 15:49:49 15:51:26 13° 343° (NNW) 15:53:04 145.800 FM
Gurwin Techsat 1B 23 Aug 15:56:53 16:01:41 35° 263° (W) 16:06:31 435.225 FM
RS-15 23 Aug 15:57:40 16:05:47 22° 26° (NNE) 16:14:01 29.354 - 29.394 USB, Beacon 29.352 USB
Uribyol 2 23 Aug 16:02:15 16:04:22 12° 269° (W) 16:06:30 436.500 FM
Uosat F 23 Aug 16:07:43 16:12:26 44° 71° (ENE) 16:17:11 435.120 FM
JAS-1B 23 Aug 16:27:03 16:34:42 25° 269° (W) 16:42:11 435.800 - 435.900 CW/SSB
UOSAT-12 23 Aug 16:31:06 16:35:41 48° 54° (NE) 16:40:12 437.025 FM, 437.400 FM
JAS-2 23 Aug 16:53:24 16:56:58 16° 63° (ENE) 17:00:21 435.800 - 435.900 CW/SSB, 435.910 FM
PANSAT 23 Aug 16:54:22 16:56:56 17° 174° (S) 16:59:29 not established
TMSAT-1 23 Aug 16:56:21 16:58:55 14° 269° (W) 17:01:30 436.925 FM
AO-7 23 Aug 16:59:56 17:08:13 67° 255° (WSW) 17:16:32 29.400 - 29.500 MHz
OPAL 23 Aug 17:02:35 17:07:21 35° 100° (E) 17:12:05 ?
MaSat-1 23 Aug 17:08:52 17:11:09 13° 313° (NW) 17:13:30 437.345 MHz
Hamsat 23 Aug 17:38:38 17:42:19 29° 70° (ENE) 17:46:03 145.90 MHz
Uosat F 23 Aug 17:47:48 17:51:24 20° 266° (W) 17:55:01 435.120 FM
Sapphire 23 Aug 18:07:30 18:11:49 25° 107° (ESE) 18:16:09 437.095 MHz 1200 baud AX-25 AFSK
RS-15 23 Aug 18:09:49 18:20:51 65° 54° (NE) 18:32:16 29.354 - 29.394 USB, Beacon 29.352 USB
UOSAT-12 23 Aug 18:12:15 18:15:27 18° 251° (WSW) 18:18:36 437.025 FM, 437.400 FM
PANSAT 23 Aug 18:33:59 18:36:30 17° 187° (S) 18:39:00 not established
JAS-2 23 Aug 18:34:47 18:41:32 79° 257° (WSW) 18:47:30 435.800 - 435.900 CW/SSB, 435.910 FM
STRAND 1 23 Aug 18:36:04 18:37:28 11° 90° (E) 18:38:52 ?
PCSat 23 Aug 18:36:45 18:41:56 50° 112° (ESE) 18:47:10 145.825 MHz
OPAL 23 Aug 18:41:42 18:46:03 28° 295° (WNW) 18:50:24 ?
ISS 23 Aug 19:04:51 19:07:14 18° 24° (NNE) 19:09:38 145.800 FM
Oscar 10/S400 23 Aug 19:06:17 19:24:10 48° 152° (SSE) 20:04:58 145.825 - 145.975 CW/USB, Beacon 145.810 USB
SO-67 23 Aug 19:11:16 19:14:33 42° 74° (ENE) 19:17:51 435.3500 MHz FM
Hamsat 23 Aug 19:14:57 19:18:16 22° 266° (W) 19:21:38 145.90 MHz
HO-68 23 Aug 19:36:35 19:40:43 17° 55° (NE) 19:44:51 435.675 MHz FM
Sapphire 23 Aug 19:49:51 19:54:57 42° 304° (NW) 20:00:06 437.095 MHz 1200 baud AX-25 AFSK
STRAND 1 23 Aug 20:12:05 20:17:11 76° 285° (WNW) 20:22:16 ?
PCSat 23 Aug 20:21:20 20:25:37 24° 310° (NW) 20:29:56 145.825 MHz
RS-15 23 Aug 20:22:58 20:32:31 35° 254° (WSW) 20:42:25 29.354 - 29.394 USB, Beacon 29.352 USB
UKube-1 23 Aug 20:28:15 20:29:51 12° 63° (ENE) 20:31:27 145.840 MHz, 145.915 MHz
ISS 23 Aug 20:40:57 20:44:17 72° 221° (SW) 20:47:36 145.800 FM
HO-68 23 Aug 21:20:16 21:27:25 88° 73° (ENE) 21:34:36 435.675 MHz FM
UKube-1 23 Aug 22:01:13 22:05:31 62° 259° (WSW) 22:09:50 145.840 MHz, 145.915 MHz
Oscar 11 23 Aug 22:15:27 22:19:46 76° 258° (WSW) 22:24:07 145.825 FM, Beacon 2401.500 USB
FUNcube-1 23 Aug 22:20:26 22:24:20 42° 73° (ENE) 22:28:18 145.950 - 145.970 MHz USB
HO-68 23 Aug 23:12:12 23:15:55 15° 270° (W) 23:19:38 435.675 MHz FM
MaSat-1 23 Aug 23:49:02 23:52:12 17° 50° (NE) 23:55:08 437.345 MHz
Saudisat 1A 23 Aug 23:49:29 23:52:21 17° 110° (ESE) 23:55:15 436.775 MHz
FUNcube-1 23 Aug 23:58:48 00:00:57 14° 268° (W) 00:03:07 145.950 - 145.970 MHz USB
KITSAT 1 24 Aug 00:43:44 00:51:24 49° 111° (ESE) 00:59:04 435.175 FM
MaSat-1 24 Aug 01:25:09 01:29:44 52° 251° (WSW) 01:33:43 437.345 MHz
Saudisat 1A 24 Aug 01:27:21 01:31:34 45° 306° (NW) 01:35:50 436.775 MHz
Oscar 19 24 Aug 02:06:36 02:11:17 33° 97° (E) 02:15:56 437.125 CW, 437.150 USB
ITAMSAT 1 24 Aug 02:22:35 02:26:21 20° 94° (E) 02:30:05 435.822 SSB
JAS-1B 24 Aug 02:25:09 02:30:12 21° 89° (E) 02:34:44 435.800 - 435.900 CW/SSB
Uribyol 2 24 Aug 02:34:00 02:38:25 28° 96° (E) 02:42:49 436.500 FM
Gurwin Techsat 1B 24 Aug 02:37:01 02:38:45 12° 90° (E) 02:40:29 435.225 FM
KITSAT 1 24 Aug 02:39:27 02:46:54 39° 310° (NW) 02:54:24 435.175 FM
Oscar 16 24 Aug 02:39:46 02:44:59 74° 102° (ESE) 02:50:10 437.025 USB, Beacon 2401.1428
AO-27 24 Aug 02:48:48 02:53:36 37° 98° (E) 02:58:21 436.795 MHz FM
Sapphire 24 Aug 02:56:43 03:00:20 18° 46° (NE) 03:03:56 437.095 MHz 1200 baud AX-25 AFSK
PCSat 24 Aug 03:26:16 03:31:04 31° 53° (NE) 03:35:51 145.825 MHz
TMSAT-1 24 Aug 03:31:05 03:35:42 30° 96° (E) 03:40:17 436.925 FM
AO-Echo 24 Aug 03:32:57 03:37:39 71° 285° (WNW) 03:42:18 ?
Oscar 19 24 Aug 03:46:07 03:50:29 28° 293° (WNW) 03:54:50 437.125 CW, 437.150 USB
ITAMSAT 1 24 Aug 04:01:07 04:06:01 45° 289° (WNW) 04:10:55 435.822 SSB
Uribyol 2 24 Aug 04:13:17 04:17:52 33° 291° (WNW) 04:22:27 436.500 FM
Gurwin Techsat 1B 24 Aug 04:13:57 04:19:16 78° 285° (WNW) 04:24:33 435.225 FM
JAS-1B 24 Aug 04:14:25 04:21:31 57° 291° (WNW) 04:27:31 435.800 - 435.900 CW/SSB
OPAL 24 Aug 04:16:06 04:20:57 53° 70° (ENE) 04:25:54 ?
Uosat F 24 Aug 04:18:19 04:21:05 15° 92° (E) 04:23:49 435.120 FM
Oscar 16 24 Aug 04:21:11 04:23:41 14° 299° (WNW) 04:26:10 437.025 USB, Beacon 2401.1428
AO-27 24 Aug 04:28:43 04:32:54 25° 294° (WNW) 04:37:04 436.795 MHz FM
Sapphire 24 Aug 04:38:54 04:44:19 73° 245° (WSW) 04:49:42 437.095 MHz 1200 baud AX-25 AFSK
KITSAT 1 24 Aug 04:42:30 04:45:01 12° 336° (NNW) 04:47:33 435.175 FM
